LDPE-2

Last updated on Thu Oct 30 2025 00:02:52 GMT+0000 (Coordinated Universal Time)

1 54219U 22144A 25302.52822720 .00000044 00000+0 00000+0 0 9990 2 54219 5.0838 65.2912 0001009 246.5827 103.2066 1.02052552 9500
UTC large
Height (km)
Speed (km/s)
/
Latitude / Longitude
Inclination (degrees)
Orbital Period (minutes)
Azimuth
Elevation
Range (km)
Doppler Factor

Next 0 passes for location: London (51.5072 / 0.1276)

Sorry there are no passes over London.